Theta_e
347 348 349 349 350 348 349 348 348 349 350 350 351 351 351 351 351 351 352 350 347 349 350 349 349 346 348 346 345 346 347 347 347 346 345 344 344 343 343 344 344 344 343 343 343 341 341 341 341 341 340 340 340 337 333 334 335 333 331 332 332 335
346 346 347 349 347 347 348 348 350 350 350 350 350 350 351 350 351 350 350 351 349 348 345 346 348 346 346 346 346 346 347 347 346 346 345 344 343 342 342 342 343 343 343 343 343 340 340 341 342 341 340 340 338 333 333 337 333 333 332 331 333 337
341 345 346 346 347 347 348 348 348 347 348 349 349 350 348 347 347 345 345 347 347 345 343 343 342 345 344 346 347 347 347 346 346 345 345 345 344 344 343 342 342 342 341 341 341 337 338 338 338 341 341 338 335 334 335 338 335 336 331 331 332 339
340 343 344 345 346 347 347 346 345 346 347 350 349 346 344 343 342 341 339 342 344 344 346 344 343 341 343 343 346 346 347 347 346 345 344 343 344 344 343 341 340 340 338 336 333 333 335 335 336 337 338 337 334 334 337 336 331 333 331 334 334 340
334 342 344 345 344 343 345 343 344 344 345 346 346 347 347 346 344 340 339 341 341 343 342 344 341 343 345 344 343 342 345 344 344 343 344 340 341 340 340 336 336 337 333 333 332 333 334 334 335 334 334 334 334 334 337 338 334 333 329 331 335 338
337 333 343 343 343 343 343 341 342 343 342 343 343 345 345 347 346 347 347 342 340 342 340 340 340 340 340 341 340 340 340 342 342 341 342 338 337 338 337 334 332 332 333 333 333 333 335 335 334 333 333 333 334 336 333 333 332 333 331 332 336 339
329 334 335 343 343 343 341 339 340 340 340 339 342 342 342 342 345 346 345 341 340 338 339 340 337 338 339 341 341 342 338 339 339 338 339 335 334 336 335 333 332 332 333 334 334 330 333 336 335 334 333 333 333 335 332 336 335 334 330 331 336 339
328 333 334 338 340 340 338 339 340 340 337 337 339 339 342 341 340 343 339 340 342 341 338 337 337 337 340 339 339 340 343 336 336 337 337 335 334 333 334 334 333 332 333 333 333 329 327 330 333 336 334 333 333 335 331 331 335 331 331 331 334 338
327 330 330 339 339 334 335 337 338 336 337 337 338 338 336 340 342 342 339 338 341 339 338 338 337 338 340 339 339 341 340 340 336 336 336 333 336 334 333 334 334 333 332 331 331 332 328 330 331 335 334 333 333 332 335 331 336 333 333 330 331 337
329 326 331 332 332 334 335 332 332 334 335 337 333 335 335 336 339 340 338 341 340 341 339 339 338 339 339 337 340 340 338 340 339 336 335 333 337 337 337 335 337 336 331 332 329 332 333 329 328 330 331 333 336 335 335 333 333 332 331 333 331 334
325 330 329 325 331 332 333 330 332 332 333 331 332 333 332 334 335 335 338 340 341 340 338 339 338 338 338 339 339 339 337 340 339 343 343 339 340 337 337 340 335 335 334 332 331 330 330 332 330 328 329 330 332 333 333 333 333 333 331 335 332 332
325 331 329 322 333 330 331 330 330 336 331 329 334 330 331 333 337 337 336 340 339 340 339 339 338 339 338 338 337 339 340 340 341 341 340 339 338 337 335 335 335 336 338 336 337 331 332 330 329 326 328 328 331 333 333 334 332 332 333 335 334 331
325 330 327 326 329 329 333 325 334 330 330 334 335 331 329 329 335 337 338 338 340 340 340 338 337 336 338 337 338 340 341 341 341 340 340 339 340 336 335 335 336 338 335 338 338 332 330 329 330 330 327 327 329 331 332 333 335 334 332 334 336 335
326 323 327 326 327 325 329 330 328 328 331 331 336 333 333 331 330 331 334 336 338 335 340 339 338 336 337 337 339 338 340 340 341 340 340 339 339 339 335 335 334 334 337 336 333 335 332 327 326 327 326 328 329 331 333 333 333 332 335 334 333 336
326 325 325 326 327 327 328 322 320 326 328 331 336 335 336 334 330 331 330 335 333 334 335 338 338 338 338 338 337 339 339 341 340 340 341 340 342 339 336 335 335 335 337 333 331 329 331 330 330 327 327 328 329 334 333 333 334 335 333 334 335 332
326 327 327 329 331 331 330 330 327 328 332 332 332 329 334 331 334 333 334 333 337 336 336 338 340 340 339 339 339 339 340 341 340 340 340 339 338 337 338 337 335 338 335 330 330 327 327 327 327 326 327 331 328 331 334 333 333 333 332 332 330 330
326 327 329 329 329 331 334 330 329 332 330 333 328 325 331 334 337 333 335 329 336 336 332 338 339 337 339 338 338 338 339 341 341 341 343 341 340 337 335 337 337 334 334 331 328 326 326 325 326 326 327 328 330 329 330 332 332 333 333 332 331 330
328 329 331 331 332 330 331 332 330 328 332 327 329 329 328 331 328 335 334 330 334 336 339 336 334 335 338 337 336 336 338 339 338 339 340 341 340 340 339 339 338 337 333 331 328 328 331 331 328 325 325 325 328 329 328 331 332 332 331 331 330 329
329 329 330 331 332 333 331 329 329 328 326 329 326 330 335 326 329 336 329 333 332 336 337 333 335 336 335 335 336 337 335 335 337 338 338 338 338 339 339 340 339 339 340 338 337 336 334 333 331 330 325 325 326 327 328 329 332 330 329 329 330 331
329 329 330 331 327 325 325 321 322 324 321 326 322 326 330 328 328 326 330 333 334 339 330 333 333 335 338 332 334 333 334 333 334 332 336 335 336 336 336 337 337 338 336 337 337 336 336 333 331 330 327 326 325 325 326 327 328 329 329 329 330 332
328 328 326 324 325 322 322 320 322 324 325 323 318 325 327 327 328 326 328 326 330 329 332 332 332 333 331 330 332 331 331 330 331 330 331 334 335 335 335 335 338 338 336 334 336 338 337 334 329 326 330 327 329 328 326 327 326 326 326 328 329 329
327 327 332 328 324 330 323 324 325 321 323 318 317 322 321 324 327 328 330 330 332 333 331 331 334 334 335 332 331 332 332 331 329 329 330 329 331 333 333 333 335 332 336 335 333 336 338 334 327 325 323 322 324 328 329 328 325 325 325 326 328 328
326 327 330 327 327 323 325 327 326 325 323 322 323 329 324 325 328 324 330 330 327 325 325 324 327 330 330 330 330 330 331 332 332 332 330 329 328 329 331 331 333 331 332 333 333 336 335 334 329 329 326 322 318 317 322 324 327 325 325 325 326 327
326 326 324 327 326 325 326 328 331 331 327 328 323 327 329 327 327 326 327 327 324 328 327 325 324 322 325 327 332 333 331 331 330 332 333 330 330 329 330 331 332 331 331 328 330 331 335 335 332 331 322 320 319 319 314 317 320 324 326 326 326 326
326 326 323 326 323 325 325 328 328 328 329 328 328 325 323 321 324 324 326 325 325 324 325 326 324 323 323 325 326 326 326 329 330 331 329 329 330 330 331 332 332 331 330 327 326 329 332 333 332 332 327 324 319 315 315 319 320 321 325 324 325 326
325 326 322 323 325 324 324 327 324 324 321 321 320 319 319 319 322 322 321 327 327 325 325 326 326 325 322 323 327 327 328 326 326 328 329 329 329 330 329 327 330 332 331 331 328 328 329 335 333 333 332 328 326 321 322 323 321 316 324 325 325 325
325 325 321 322 324 325 325 324 324 323 323 326 322 319 324 325 327 325 324 326 326 328 323 324 325 326 326 325 324 327 326 327 324 326 326 326 326 327 329 330 329 331 332 331 331 327 327 329 332 331 330 328 327 327 326 322 317 319 317 322 324 324
325 324 322 323 322 325 322 323 322 323 323 322 323 319 322 323 326 326 325 325 326 328 327 325 325 323 325 326 325 324 325 326 325 322 323 322 323 325 328 330 332 332 333 332 331 329 328 329 326 325 328 328 329 329 328 326 324 319 317 318 319 325
326 324 323 322 321 322 324 322 322 321 321 321 321 321 320 320 322 322 323 324 325 323 324 325 325 324 324 325 325 324 324 322 322 323 321 321 322 323 324 324 328 331 331 331 331 331 329 328 328 326 326 326 327 327 327 327 326 323 317 317 319 320
325 323 323 321 321 322 324 322 321 321 320 320 319 320 321 319 322 321 322 322 324 322 325 323 324 324 324 323 323 324 323 323 322 321 323 320 321 321 321 322 323 325 328 331 331 330 329 329 329 328 327 327 325 326 325 325 324 323 319 319 317 318
325 323 322 321 321 319 323 320 320 321 320 320 320 320 321 317 321 320 320 320 322 323 326 327 326 323 322 323 322 323 322 322 322 322 321 320 320 320 321 323 324 325 325 326 327 330 329 329 330 329 329 328 327 327 324 322 321 321 320 321 320 319
325 324 322 322 322 320 320 319 321 321 319 321 320 319 319 318 319 318 320 320 321 323 320 323 323 322 322 322 323 322 322 321 320 320 320 321 321 320 321 322 321 322 323 325 327 327 329 328 329 328 328 329 329 329 328 326 324 323 323 322 324 322
324 324 322 321 321 321 320 319 320 320 320 321 320 320 319 320 319 320 319 318 320 320 321 319 320 321 323 321 322 320 320 320 320 320 320 320 320 320 320 320 320 320 322 323 323 325 326 328 329 328 329 330 330 330 328 329 327 325 327 329 326 321
324 324 323 321 321 321 321 320 321 320 320 320 320 320 320 319 320 320 319 319 319 318 318 317 319 318 320 321 320 321 320 319 318 318 318 318 318 318 318 317 318 318 319 320 322 323 323 326 328 329 328 329 329 329 329 329 328 326 325 324 323 322
325 324 323 322 321 321 320 320 320 320 320 319 319 319 319 319 319 319 321 320 319 320 318 318 318 320 320 320 319 319 318 317 316 316 315 316 317 316 317 317 316 317 318 319 320 320 321 323 326 328 328 327 327 329 329 329 329 327 326 325 323 322
325 324 323 321 320 320 320 320 320 319 319 319 318 318 317 319 320 321 321 320 319 320 319 319 319 319 319 319 318 317 316 315 315 315 314 314 314 314 315 315 315 316 316 319 318 320 320 321 321 324 328 328 327 326 327 329 329 328 328 327 325 325
325 325 323 321 321 320 320 319 319 318 318 318 318 317 317 317 318 319 320 319 319 319 320 319 319 318 318 318 318 317 315 314 314 314 313 313 313 313 313 313 313 314 315 316 317 317 319 320 321 322 325 327 325 325 327 327 328 328 328 328 327 326
Wind_Speed
3 5 5 4 5 5 5 7 4 6 6 5 6 7 8 8 7 7 8 8 8 6 5 5 7 6 10 7 8 10 9 9 11 12 12 12 11 10 10 10 9 9 10 10 8 8 8 7 7 7 6 6 5 4 5 6 2 3 10 8 8 7
2 3 4 3 3 5 4 4 4 5 5 5 4 5 6 6 6 5 7 6 5 5 5 4 5 8 6 7 7 10 10 9 11 12 12 11 11 9 8 8 6 7 8 9 11 5 4 5 6 6 6 6 2 4 5 5 1 2 11 7 8 8
6 4 4 5 3 5 6 4 4 3 3 5 6 6 5 5 5 5 7 6 4 3 4 4 4 7 6 7 8 10 10 10 10 12 12 10 10 10 7 4 4 5 9 10 7 5 5 5 3 6 6 3 3 4 6 1 1 2 9 8 7 12
7 7 4 2 3 3 4 4 1 2 0 1 2 4 4 4 3 4 7 4 3 2 5 4 5 2 7 3 4 8 11 11 10 11 13 9 9 9 10 6 6 5 4 5 5 5 6 6 6 4 4 4 5 5 5 2 4 3 9 10 8 12
5 6 6 4 6 5 3 4 3 2 2 1 0 0 2 1 3 5 5 4 4 5 3 5 4 3 2 2 3 5 5 6 5 5 9 6 5 6 5 6 4 4 4 5 7 6 5 6 5 6 5 5 6 6 3 2 2 7 7 7 9 13
1 3 7 5 6 5 4 4 4 3 1 3 3 3 2 2 2 4 4 5 6 5 5 3 3 1 3 1 4 4 5 5 5 6 7 6 5 6 5 6 5 6 6 6 6 7 7 7 6 7 6 6 6 4 4 3 3 9 6 7 9 14
3 1 2 9 6 5 6 5 4 4 3 3 2 2 2 4 3 3 4 8 6 2 2 3 4 4 2 2 2 3 4 4 5 5 6 5 6 8 7 7 6 6 6 7 8 3 2 8 6 6 6 6 4 2 4 2 5 9 7 7 9 15
4 3 3 7 6 6 5 5 4 3 3 3 3 3 3 2 3 5 6 3 3 3 2 2 2 2 2 1 4 6 4 5 6 6 7 5 6 7 6 6 6 6 7 7 10 4 4 3 3 2 3 3 4 2 4 4 3 7 9 7 8 13
2 2 3 2 8 7 6 6 5 3 2 1 3 3 4 4 4 4 3 3 2 4 3 4 6 4 3 4 5 5 6 5 6 7 7 6 5 6 6 7 8 8 7 8 3 3 3 2 5 2 2 4 4 3 2 3 1 7 9 7 7 9
5 2 1 2 5 4 3 7 5 4 3 3 3 3 3 3 2 4 2 3 3 4 3 3 3 2 4 4 2 4 4 7 6 5 5 6 4 5 4 5 4 4 4 3 4 3 2 3 5 4 3 2 1 1 2 3 3 4 7 7 8 9
6 6 3 5 4 3 3 4 5 4 4 3 3 3 3 3 2 3 2 1 2 2 5 4 2 4 3 3 3 2 4 6 6 4 3 3 3 5 3 2 5 5 5 3 4 5 4 1 2 6 6 3 3 4 3 4 3 2 5 9 8 7
4 3 6 4 2 2 3 3 2 3 3 5 4 3 1 1 2 2 5 1 1 2 3 5 4 3 4 2 3 3 6 6 4 3 3 8 9 4 6 6 7 5 4 4 1 4 3 3 3 2 2 5 3 5 3 3 3 3 2 9 8 7
4 3 4 4 3 3 2 3 2 3 3 1 4 4 4 5 2 1 2 3 3 3 3 2 5 3 2 3 5 4 3 3 3 1 3 2 7 8 5 6 5 3 6 3 2 5 6 4 2 2 5 3 4 4 3 2 2 3 4 6 8 9
4 5 4 3 4 3 2 1 3 4 2 2 2 4 3 4 4 4 4 2 1 3 3 3 1 5 4 3 5 5 3 2 3 3 2 3 4 5 8 4 3 4 3 1 2 1 4 4 5 3 5 5 5 4 4 2 3 5 2 1 5 9
4 4 4 4 3 3 3 4 4 3 3 3 1 1 3 3 5 3 6 5 4 3 2 4 6 4 4 5 5 3 5 3 5 4 3 5 3 4 9 5 2 2 1 4 3 4 3 2 1 3 4 4 2 2 5 5 3 3 3 3 3 2
4 4 4 3 2 2 2 3 3 3 2 2 2 2 3 2 2 3 3 4 2 2 0 1 2 2 2 2 2 2 2 2 4 2 5 4 2 1 3 3 7 2 2 5 7 3 4 3 4 5 4 4 4 1 2 4 3 3 4 5 4 4
5 5 3 3 4 2 2 3 3 2 3 2 3 4 2 2 1 4 1 6 2 1 2 2 1 3 2 1 1 2 3 1 3 3 2 3 4 5 5 4 4 6 4 5 6 6 6 6 6 6 3 3 2 3 2 4 5 4 6 3 4 4
5 4 3 2 2 3 2 3 3 3 2 4 3 2 3 2 4 1 3 4 2 1 1 1 1 2 3 2 1 2 2 2 2 2 1 1 2 3 4 2 3 4 3 5 4 4 2 1 3 5 5 4 4 2 3 3 5 5 5 3 5 4
4 3 3 2 2 2 3 3 3 3 3 2 4 3 2 4 2 2 4 2 3 1 1 2 2 1 3 1 1 1 2 3 2 2 3 2 2 2 1 1 1 3 5 4 2 3 4 4 5 6 4 7 4 5 4 5 3 5 5 5 6 7
4 4 4 3 5 6 3 4 3 2 3 2 4 3 2 3 3 5 2 2 1 1 3 2 2 1 1 3 1 3 2 2 2 2 1 2 1 2 2 2 3 2 2 3 3 3 2 3 6 5 6 4 6 6 5 5 4 3 4 5 5 2
4 4 4 4 1 3 2 3 3 1 1 3 3 2 4 4 2 4 2 2 2 2 1 1 1 1 2 3 2 4 4 4 3 2 2 2 3 3 4 4 2 0 3 4 3 2 4 4 4 5 8 1 2 4 4 6 6 5 5 4 3 3
5 4 2 4 4 2 2 2 1 2 1 4 3 3 3 3 2 4 2 2 1 0 2 2 0 0 0 1 1 1 1 3 5 4 3 2 3 3 4 4 2 4 4 3 3 3 1 3 1 2 3 2 2 1 3 4 6 7 7 6 3 5
5 3 2 4 4 3 3 2 2 2 2 2 3 1 3 3 2 2 3 1 4 5 4 3 3 2 2 2 2 3 2 1 1 2 4 3 3 4 4 6 5 5 5 3 3 3 4 5 2 2 2 6 4 3 3 4 4 6 7 7 6 7
6 5 4 3 4 4 4 3 2 2 1 2 3 4 4 3 2 2 1 2 4 2 2 2 3 4 4 3 2 0 1 2 2 2 2 3 3 5 4 5 5 7 6 6 6 6 6 6 5 3 3 5 5 5 4 7 7 8 10 10 9 9
7 6 5 4 5 4 4 3 2 1 2 0 2 2 2 3 1 2 1 3 2 3 1 1 3 4 3 3 5 5 5 2 1 2 3 3 2 3 3 4 6 6 7 8 9 6 4 8 10 9 6 1 4 6 6 3 10 7 7 8 11 11
7 6 6 5 5 5 4 5 5 4 5 6 3 3 3 2 2 2 2 1 1 1 1 0 0 2 4 4 2 2 2 3 3 4 3 3 3 3 4 4 4 6 8 10 10 8 8 4 7 9 10 7 3 2 2 4 3 3 7 9 8 10
7 6 7 6 6 5 5 3 2 2 1 1 3 3 2 2 1 2 2 1 1 1 2 2 2 1 1 2 3 2 2 2 3 4 4 4 4 4 4 3 5 5 7 8 8 9 10 9 4 4 3 7 10 9 9 6 5 4 4 6 6 6
7 7 7 7 6 5 4 3 3 2 1 2 2 4 3 2 1 0 2 1 2 1 1 0 2 2 1 1 2 3 3 2 3 3 4 5 5 4 4 3 3 5 5 6 8 10 10 8 7 6 7 9 7 8 10 12 10 7 6 1 6 7
9 8 8 8 7 6 5 5 4 3 3 3 2 4 2 3 3 2 1 2 1 1 2 1 1 1 2 1 1 2 2 3 4 4 4 4 5 5 5 5 4 3 4 6 6 8 8 8 8 9 9 8 9 9 9 10 9 6 4 4 3 7
10 8 8 9 7 6 4 6 5 4 4 4 3 3 2 3 2 3 2 1 2 2 2 3 2 1 0 1 0 1 2 2 3 5 4 5 6 7 7 5 5 5 5 5 5 7 9 8 7 8 10 7 8 7 9 8 8 7 8 6 5 3
11 8 9 9 8 7 4 5 4 4 4 4 3 3 2 3 3 2 2 2 2 1 1 0 1 2 3 2 2 2 1 2 2 3 4 5 6 6 5 4 4 5 7 7 6 6 8 9 8 8 10 9 10 9 9 9 10 9 8 3 2 5
11 10 10 9 8 7 6 5 4 5 4 4 3 3 3 4 3 3 1 1 2 1 2 2 1 1 2 3 1 0 2 2 3 3 4 4 4 6 5 6 7 6 6 7 6 6 5 8 11 9 10 10 10 9 9 9 8 7 6 5 4 4
12 10 11 9 8 8 7 6 5 6 5 4 4 4 3 2 3 2 2 2 1 1 1 2 2 1 1 0 0 2 2 3 3 3 3 3 3 4 5 6 6 7 7 5 5 6 5 6 8 10 10 9 9 9 10 8 7 7 5 2 2 3
11 10 10 9 8 8 7 6 5 5 5 4 4 4 3 3 3 2 3 2 2 2 1 0 0 0 1 1 1 2 2 3 4 4 4 4 4 4 5 6 6 7 7 6 6 7 8 7 8 9 10 10 9 10 10 8 8 7 7 5 5 6
11 11 11 10 8 8 7 6 6 5 5 5 4 4 3 3 4 3 1 2 2 1 1 1 2 2 2 2 1 2 2 3 4 5 5 5 5 5 6 6 6 7 7 7 8 8 8 8 7 7 9 10 10 9 9 9 8 8 7 8 8 7
11 11 10 10 9 8 7 6 6 6 6 5 5 4 4 2 3 3 2 2 2 1 1 1 1 1 1 1 2 2 3 3 4 4 5 6 5 5 5 6 6 6 8 6 8 9 8 8 10 9 8 8 8 8 8 9 9 8 9 8 8 7
10 10 11 10 9 8 7 7 7 6 5 5 5 5 4 4 3 3 2 2 2 2 1 1 1 1 2 2 2 2 3 4 4 3 4 5 6 6 6 6 7 7 8 8 8 9 8 9 9 8 6 7 8 10 10 7 8 8 8 8 8 7
Wind_Direction
126 127 136 130 126 110 122 125 118 105 120 122 128 134 140 139 137 137 141 142 148 158 166 156 153 154 152 157 148 137 139 136 132 139 138 136 137 147 153 153 154 159 159 160 154 159 164 165 164 167 190 222 259 298 285 279 284 8 95 99 106 111
100 114 118 142 148 136 134 152 158 154 151 138 136 141 152 161 161 155 156 153 166 180 171 157 185 172 165 166 147 144 141 143 135 141 146 146 140 141 149 151 159 170 164 165 164 162 170 171 168 178 199 223 239 252 263 256 16 317 97 100 104 124
110 96 118 134 124 141 156 154 179 170 166 170 172 175 177 185 181 177 177 173 190 173 181 174 201 173 184 165 149 151 147 148 144 147 150 153 148 137 131 140 161 185 185 179 171 185 172 167 174 196 213 224 238 238 255 199 234 65 112 115 119 132
112 103 76 105 141 113 138 129 127 77 240 153 191 188 187 195 191 198 191 173 190 56 68 87 12 253 215 115 142 154 152 149 152 152 154 157 156 147 143 157 195 208 211 204 206 209 177 163 168 170 209 219 229 237 219 155 241 110 110 121 127 126
95 120 115 86 75 64 72 73 76 83 26 343 87 28 293 240 186 204 195 177 86 70 65 40 91 293 331 132 168 167 159 155 160 163 157 164 164 163 165 187 198 206 231 219 225 219 184 149 170 168 196 215 230 245 143 139 260 94 117 124 133 129
93 109 126 118 117 110 82 70 68 54 61 40 11 347 327 342 9 33 356 78 84 61 50 67 31 125 246 306 200 197 177 168 181 174 182 165 178 157 188 200 199 201 220 236 227 236 149 147 169 177 191 209 225 222 127 184 200 105 115 128 135 131
57 44 326 128 127 119 112 81 52 44 51 45 2 353 7 336 336 27 48 78 102 122 145 167 174 248 221 209 253 224 197 184 190 188 193 188 179 168 193 187 201 202 214 229 244 184 164 160 170 186 181 196 226 204 158 221 143 114 127 135 142 140
39 349 9 112 99 122 115 117 98 70 44 27 30 15 20 9 343 31 52 54 117 139 119 76 204 219 271 206 239 219 236 203 195 194 198 217 183 176 199 185 203 213 215 224 230 159 205 158 154 167 184 176 173 265 134 247 152 128 131 141 151 149
73 338 44 330 138 125 118 117 127 124 102 60 59 26 359 359 43 56 118 197 138 107 131 173 194 190 219 191 213 226 246 268 223 194 197 221 190 177 206 180 199 218 212 214 162 192 142 202 149 202 236 180 184 183 169 216 259 130 134 143 148 150
26 19 116 335 32 36 103 132 117 112 136 106 72 35 17 7 22 124 165 244 133 137 151 190 193 151 223 227 194 192 240 264 265 228 193 206 184 180 224 186 241 245 231 220 167 182 166 172 167 168 230 257 128 255 182 154 257 169 133 143 144 154
69 356 337 77 20 73 58 16 112 140 143 118 113 70 26 340 350 53 74 94 151 156 154 205 180 162 239 221 230 164 225 257 287 288 344 296 210 174 214 196 229 238 257 234 191 144 168 331 284 166 176 214 175 179 242 160 221 244 154 136 145 156
71 25 355 92 109 47 27 104 8 111 96 117 145 141 138 224 0 43 95 36 281 160 189 174 188 196 192 212 241 243 205 208 270 354 37 333 331 276 186 211 216 232 259 255 190 120 136 180 259 305 192 179 196 163 219 168 180 250 187 136 147 160
53 46 53 25 49 72 321 65 99 71 79 146 165 151 173 124 55 57 85 132 237 201 163 207 177 190 214 195 238 228 212 164 143 56 125 263 285 304 280 209 232 233 223 236 186 151 172 150 74 318 302 208 189 188 191 171 181 265 216 152 158 152
96 81 64 45 31 49 354 147 83 80 63 307 63 141 113 112 157 183 146 113 335 295 195 160 287 156 195 250 222 219 237 169 134 179 160 243 228 259 275 247 222 225 255 235 247 209 132 133 157 213 240 270 179 184 152 170 206 224 256 250 159 154
102 80 74 57 37 76 29 39 49 53 58 296 166 82 86 153 171 159 131 158 222 235 287 137 170 178 167 176 252 230 204 189 153 155 183 216 183 191 252 287 223 250 310 309 264 208 171 142 158 235 220 212 315 139 148 184 206 225 221 207 271 187
112 107 105 99 94 80 71 75 81 70 93 349 15 61 82 11 358 125 142 140 110 331 18 247 127 114 163 185 225 245 222 182 128 190 196 212 225 207 352 327 289 232 168 254 262 204 157 173 179 228 228 164 247 303 181 180 191 231 240 182 203 248
130 129 126 134 141 140 162 115 101 108 125 73 29 13 67 198 132 77 36 83 101 39 322 357 83 113 81 60 26 337 281 268 162 192 220 178 179 201 172 232 238 256 195 238 246 259 173 196 182 204 229 150 191 248 249 185 189 209 249 187 173 192
147 130 142 141 156 146 178 148 141 126 72 119 101 71 309 8 55 40 54 77 53 19 343 70 106 102 102 82 230 274 355 346 268 234 241 190 197 196 178 207 259 247 219 226 253 265 281 170 214 205 180 167 157 262 264 245 197 197 229 213 197 209
141 147 152 180 195 151 188 128 103 89 86 71 105 103 333 60 345 65 73 66 73 297 60 24 32 108 130 140 179 191 93 302 345 190 202 241 220 219 213 184 223 291 346 322 335 339 336 327 309 305 236 164 173 186 243 273 246 202 208 231 208 200
155 166 178 207 198 195 159 75 73 46 90 47 88 117 90 69 6 59 32 53 49 96 48 7 9 347 166 154 175 130 147 231 286 326 307 260 263 289 262 235 220 233 280 295 318 317 339 342 319 300 285 164 173 174 189 232 265 259 213 223 229 198
162 174 190 207 65 53 76 117 105 119 125 93 64 42 106 84 49 84 12 35 336 56 86 89 309 27 0 326 151 196 156 170 201 246 292 283 294 271 251 278 313 183 220 233 253 333 335 7 359 330 305 250 140 163 196 192 220 250 261 243 203 216
154 199 217 83 99 89 52 47 61 53 3 78 58 40 69 86 153 129 150 140 218 143 32 348 242 141 308 194 286 356 240 175 158 181 199 249 248 253 270 266 253 279 257 237 231 173 212 63 318 238 289 327 293 252 217 202 208 217 230 246 213 206
164 161 138 127 145 116 90 39 51 84 360 104 107 51 91 138 73 89 148 157 85 39 12 336 313 285 191 216 208 217 206 253 219 183 163 200 224 233 228 244 240 246 267 259 254 191 180 163 231 327 310 322 267 238 254 246 227 228 219 232 220 219
162 159 152 186 117 125 121 113 112 114 71 0 127 176 161 113 106 107 98 105 87 49 16 306 328 340 334 331 307 356 63 28 336 313 224 199 199 209 215 225 216 232 246 265 251 239 185 181 188 175 239 206 242 199 216 208 221 226 223 215 221 221
161 156 160 134 126 122 130 154 141 166 143 12 224 104 78 92 107 106 96 69 91 117 256 8 356 328 316 326 18 7 350 339 310 300 323 304 250 228 218 211 216 211 210 230 253 256 205 191 209 206 219 246 265 249 232 219 197 232 210 222 222 218
159 155 151 156 155 158 168 179 177 177 196 189 160 115 89 88 75 69 52 96 172 113 108 57 6 301 333 338 357 342 324 334 325 311 268 267 294 273 219 224 220 206 213 212 226 237 241 218 208 198 205 219 222 243 352 347 1 224 192 218 224 220
162 158 150 168 169 187 179 181 196 194 89 37 109 96 107 122 117 120 132 97 19 155 202 169 182 69 307 311 312 330 323 308 301 303 298 289 278 276 277 237 210 206 209 214 217 231 233 235 229 262 284 244 245 248 252 260 267 294 227 217 227 220
164 160 158 166 181 186 168 163 174 166 162 188 111 126 158 126 98 283 87 151 156 215 351 226 115 188 153 285 310 324 321 296 289 282 295 295 284 283 287 284 252 226 207 210 213 222 232 230 227 235 223 248 257 263 270 268 255 252 283 216 214 246
166 161 160 166 179 189 178 155 163 178 201 127 119 146 172 160 161 106 176 138 340 4 139 309 319 110 161 230 218 298 326 331 303 296 293 284 280 279 268 272 286 264 238 229 220 219 225 224 220 224 222 227 242 242 246 252 274 276 252 269 237 205
172 161 162 167 181 186 179 153 175 182 182 146 178 167 190 131 149 161 180 150 177 213 205 165 168 250 5 169 244 210 256 278 311 306 307 301 303 298 297 301 302 299 287 256 242 242 226 227 218 219 223 222 228 230 236 247 246 252 264 248 248 272
176 161 164 169 175 182 170 163 180 172 174 165 178 160 174 135 185 162 194 161 185 205 42 17 116 173 201 225 179 225 235 266 273 282 287 289 289 296 300 299 285 273 272 264 249 232 241 236 223 228 227 224 229 222 222 227 229 225 231 217 233 247
179 164 165 171 172 171 167 180 174 165 179 167 167 172 197 172 173 169 170 166 182 189 198 182 192 212 190 201 190 201 233 238 248 258 262 265 276 292 314 324 316 297 272 272 266 257 239 237 235 228 231 231 233 229 229 232 234 229 217 225 198 236
180 169 163 170 174 167 174 183 170 167 177 168 172 188 194 171 158 177 174 195 201 213 173 210 180 225 58 92 32 277 265 250 248 241 256 268 284 298 306 307 297 290 292 284 284 286 274 255 250 241 233 229 231 233 236 233 232 232 231 190 180 240
179 174 158 168 175 169 177 178 164 168 173 164 179 190 179 182 168 200 178 174 174 207 261 198 275 195 296 1 260 262 300 320 310 308 299 295 284 273 269 275 285 293 297 296 295 285 273 261 244 242 249 245 228 228 232 232 235 229 228 221 222 223
178 173 160 168 172 174 174 173 170 173 176 168 175 182 195 190 169 190 183 172 176 178 217 238 229 212 205 219 259 303 295 297 298 296 298 296 295 295 294 284 279 282 284 288 283 278 282 286 271 242 235 241 248 234 227 229 228 232 224 224 222 216
180 171 164 167 174 175 175 175 173 180 180 172 179 180 190 195 161 178 175 190 181 200 231 281 290 277 264 256 264 261 268 262 268 272 280 284 288 296 302 299 292 288 286 284 284 285 282 271 271 266 241 239 250 254 244 231 225 228 228 222 218 217
182 168 167 169 171 174 175 175 175 181 177 182 185 186 190 178 166 155 173 180 222 214 228 222 282 309 284 269 252 258 269 280 284 287 287 288 285 277 277 289 289 285 280 281 281 283 284 286 281 268 253 221 222 241 243 229 226 225 226 224 220 215